Location: Miles
(41.4492°N, 81.6087°W)
Time: 08:11:41
(UTC+00:00)

Vanguard 3 - Pass Details

Date: 21 September 2024
Orbit: 507 x 3223 km, 33.3° (Epoch: 12 October)

Event Time Altitude Azimuth Distance (km) Brightness Sun altitude
Exits shadow 08:41:41 16° 191° (S) 4,511 10.6 -28.1°
Maximum altitude 08:52:01 33° 140° (SE) 4,097 10.7 -26.4°
Drops below altitude 10° 09:07:54 10° 86° (E) 6,155 12.6 -23.7°
Sets 09:13:22 0° 79° (ENE) 7,131 13.3 -22.7°
